Location: Hylvaty SDH
(49.9612°N, 16.4057°E)
Time: 12:41:58
(UTC+01:00)

Tiros 1 - Pass Details

Date: 02 October 2020
Orbit: 630 x 663 km, 48.4° (Epoch: 28 October)

Event Time Altitude Azimuth Distance (km) Brightness Sun altitude
Rises 13:36:45 0° 206° (SSW) 2,928 11.5 35.0°
Reaches altitude 10° 13:39:32 10° 190° (S) 2,029 11.1 34.8°
Maximum altitude 13:42:59 21° 143° (SE) 1,466 9.7 34.7°
Drops below altitude 10° 13:46:27 10° 95° (E) 2,053 9.7 34.5°
Sets 13:49:17 0° 79° (E) 2,974 10.3 34.3°
